| time (UTC) | temp F | wind direction | speed knots | gust knots | rain 1hr in | rain 24hr in | rain mn in | humidity % | barometer mb |
| 20260506073035 | 51 | 219 | 1.7 | 6.1 | 0.18 | 0.89 | 0.64 | 96 | 1008.3 |
| 20260506071535 | 51 | 197 | 2.6 | 6.1 | 0.19 | 0.85 | 0.60 | 96 | 1008.1 |
| 20260506061545 | 51 | 213 | 4.3 | 8.7 | 0.19 | 0.67 | 0.41 | 95 | 1007.2 |
| 20260506044524 | 51 | 226 | 0.0 | 2.6 | 0.15 | 0.43 | 0.17 | 95 | 1006.6 |
| 20260506043035 | 51 | 192 | 0.0 | 2.6 | 0.13 | 0.40 | 0.13 | 95 | 1006.7 |
| 20260506041521 | 51 | 181 | 1.7 | 3.5 | 0.09 | 0.36 | 0.09 | 94 | 1006.7 |
| 20260506040019 | 51 | 173 | 2.6 | 3.5 | 0.04 | 0.31 | 0.05 | 94 | 1006.9 |
| 20260506034517 | 51 | 210 | 0.9 | 2.6 | 0.01 | 0.30 | 0.02 | 94 | 1006.9 |
| 20260506033018 | 51 | 202 | 0.9 | 2.6 | 0.00 | 0.28 | 0.01 | 94 | 1006.8 |
| 20260506031515 | 51 | 200 | 1.7 | 3.5 | 0.00 | 0.28 | 0.01 | 94 | 1006.8 |
| 20260506030019 | 51 | 175 | 0.9 | 2.6 | 0.00 | 0.28 | 0.01 | 94 | 1006.8 |
| 20260506024532 | 51 | 158 | 0.0 | 2.6 | 0.00 | 0.37 | 0.01 | 94 | 1007.1 |
| 20260506023014 | 51 | 155 | 0.9 | 2.6 | 0.00 | 0.37 | 0.01 | 94 | 1007.3 |
| 20260506021512 | 51 | 165 | 0.0 | 0.0 | 0.00 | 0.37 | 0.01 | 94 | 1007.2 |
| 20260506020011 | 52 | 165 | 0.0 | 0.0 | 0.00 | 0.37 | 0.01 | 94 | 1007.2 |
| 20260506014510 | 52 | 165 | 0.0 | 0.0 | 0.00 | 0.40 | 0.01 | 94 | 1007.2 |
| 20260506013006 | 52 | 165 | 0.9 | 3.5 | 0.00 | 0.40 | 0.01 | 94 | 1007.5 |
| 20260506011506 | 52 | 174 | 1.7 | 4.3 | 0.01 | 0.40 | 0.01 | 94 | 1007.8 |
| 20260506010006 | 52 | 194 | 1.7 | 5.2 | 0.01 | 0.47 | 0.01 | 94 | 1007.9 |
| 20260506004505 | 52 | 188 | 0.9 | 5.2 | 0.01 | 0.47 | 0.01 | 94 | 1008.1 |
| 20260506003100 | 52 | 194 | 1.7 | 4.3 | 0.01 | 0.47 | 0.01 | 93 | 1008.2 |
| 20260506001558 | 52 | 195 | 1.7 | 6.1 | 0.00 | 0.46 | 0.00 | 93 | 1008.4 |
| 20260506000055 | 52 | 213 | 1.7 | 5.2 | 0.00 | 0.46 | 0.00 | 93 | 1008.7 |
| 20260505234606 | 52 | 222 | 2.6 | 7.8 | 0.00 | 0.56 | 0.00 | 93 | 1008.8 |
| 20260505233052 | 52 | 184 | 2.6 | 6.1 | 0.00 | 0.56 | 0.00 | 92 | 1008.6 |
| 20260505231604 | 53 | 148 | 1.7 | 6.1 | 0.00 | 0.56 | 0.00 | 92 | 1008.6 |
| 20260505230051 | 53 | 150 | 2.6 | 7.0 | 0.00 | 0.56 | 0.00 | 92 | 1008.8 |
| 20260505224545 | 53 | 181 | 3.5 | 7.8 | 0.01 | 0.56 | 0.00 | 93 | 1009.1 |
| 20260505223040 | 54 | 147 | 1.7 | 5.2 | 0.04 | 0.56 | 0.00 | 94 | 1009.4 |
| 20260505221539 | 54 | 178 | 0.0 | 2.6 | 0.05 | 0.56 | 0.00 | 93 | 1009.7 |
| 20260505220038 | 54 | 258 | 0.0 | 2.6 | 0.05 | 0.56 | 0.00 | 93 | 1010.0 |
| 20260505214558 | 54 | 232 | 2.6 | 7.8 | 0.04 | 0.56 | 0.56 | 92 | 1009.9 |
| 20260505213033 | 56 | 220 | 5.2 | 11.3 | 0.01 | 0.53 | 0.53 | 88 | 1009.8 |
| 20260505211535 | 56 | 208 | 7.0 | 12.2 | 0.00 | 0.52 | 0.52 | 88 | 1009.4 |
| 20260505210036 | 56 | 190 | 4.3 | 7.8 | 0.00 | 0.52 | 0.52 | 91 | 1009.4 |
| 20260505204534 | 55 | 157 | 1.7 | 4.3 | 0.00 | 0.52 | 0.52 | 91 | 1009.4 |
| 20260505203030 | 55 | 159 | 2.6 | 5.2 | 0.00 | 0.52 | 0.52 | 92 | 1009.4 |
| 20260505201530 | 55 | 151 | 2.6 | 4.3 | 0.01 | 0.52 | 0.52 | 93 | 1009.1 |
| 20260505200041 | 55 | 161 | 0.9 | 3.5 | 0.02 | 0.52 | 0.52 | 92 | 1008.9 |
| 20260505194529 | 56 | 123 | 0.0 | 2.6 | 0.02 | 0.52 | 0.52 | 92 | 1008.8 |
| 20260505193023 | 56 | 167 | 0.0 | 0.0 | 0.04 | 0.52 | 0.52 | 92 | 1008.6 |
| 20260505191522 | 56 | 167 | 0.0 | 1.7 | 0.03 | 0.51 | 0.51 | 91 | 1008.5 |
| 20260505190047 | 57 | 167 | 0.9 | 1.7 | 0.03 | 0.50 | 0.50 | 89 | 1008.2 |
| 20260505184546 | 57 | 167 | 0.0 | 0.0 | 0.03 | 0.50 | 0.50 | 87 | 1008.0 |
| 20260505183055 | 58 | 167 | 0.0 | 0.0 | 0.01 | 0.48 | 0.48 | 85 | 1007.8 |
| 20260505181549 | 59 | 167 | 0.0 | 3.5 | 0.02 | 0.48 | 0.48 | 82 | 1007.8 |
| 20260505180050 | 60 | 115 | 0.9 | 3.5 | 0.02 | 0.47 | 0.47 | 82 | 1007.7 |
| 20260505174555 | 60 | 153 | 0.9 | 7.8 | 0.02 | 0.48 | 0.47 | 81 | 1007.8 |
| 20260505173043 | 60 | 213 | 2.6 | 6.1 | 0.02 | 0.48 | 0.47 | 84 | 1007.8 |
| 20260505171546 | 60 | 111 | 3.5 | 7.0 | 0.01 | 0.46 | 0.46 | 83 | 1007.8 |
| 20260505170039 | 60 | 132 | 3.5 | 6.1 | 0.00 | 0.46 | 0.45 | 85 | 1007.9 |
| 20260505164539 | 59 | 77 | 5.2 | 7.8 | 0.00 | 0.46 | 0.45 | 88 | 1008.0 |
| 20260505163038 | 58 | 126 | 3.5 | 6.1 | 0.00 | 0.46 | 0.45 | 87 | 1008.3 |
| 20260505161541 | 58 | 116 | 2.6 | 6.1 | 0.00 | 0.46 | 0.45 | 86 | 1008.4 |
| 20260505153037 | 58 | 102 | 1.7 | 5.2 | 0.00 | 0.46 | 0.45 | 88 | 1008.7 |
| 20260505151536 | 57 | 128 | 4.3 | 7.0 | 0.00 | 0.46 | 0.45 | 88 | 1008.8 |
| 20260505124534 | 64 | 179 | 5.2 | 11.3 | 0.00 | 0.43 | 0.33 | 76 | 1008.1 |
| 20260505123030 | 63 | 185 | 7.0 | 12.2 | 0.00 | 0.43 | 0.33 | 79 | 1008.0 |
| 20260505121534 | 63 | 161 | 6.1 | 12.2 | 0.00 | 0.43 | 0.33 | 78 | 1008.1 |
| 20260505120034 | 64 | 178 | 7.8 | 14.8 | 0.00 | 0.43 | 0.33 | 81 | 1008.2 |
| 20260505114521 | 62 | 147 | 7.0 | 13.0 | 0.00 | 0.49 | 0.33 | 82 | 1008.4 |
| 20260505113015 | 62 | 165 | 7.8 | 13.9 | 0.00 | 0.49 | 0.33 | 84 | 1008.6 |
| 20260505111517 | 61 | 147 | 7.8 | 15.6 | 0.00 | 0.49 | 0.33 | 87 | 1008.7 |
| 20260505101600 | 57 | 159 | 5.2 | 8.7 | 0.00 | 0.54 | 0.33 | 93 | 1009.0 |
| 20260505100059 | 56 | 183 | 4.3 | 9.6 | 0.00 | 0.54 | 0.33 | 93 | 1009.0 |
| 20260505094557 | 56 | 187 | 8.7 | 13.0 | 0.01 | 0.55 | 0.33 | 93 | 1009.0 |
| 20260505093100 | 56 | 174 | 5.2 | 10.4 | 0.01 | 0.55 | 0.33 | 93 | 1008.9 |
| 20260505091606 | 56 | 173 | 4.3 | 10.4 | 0.02 | 0.55 | 0.33 | 93 | 1008.8 |
| 20260505090054 | 56 | 199 | 6.1 | 11.3 | 0.02 | 0.55 | 0.33 | 93 | 1008.7 |
| 20260505084556 | 56 | 215 | 6.1 | 10.4 | 0.01 | 0.61 | 0.32 | 92 | 1008.7 |
| 20260505083058 | 56 | 173 | 4.3 | 11.3 | 0.01 | 0.61 | 0.32 | 93 | 1008.7 |
| 20260505081555 | 56 | 184 | 5.2 | 10.4 | 0.00 | 0.61 | 0.31 | 93 | 1008.7 |
| 20260505080051 | 56 | 198 | 2.6 | 6.1 | 0.00 | 0.61 | 0.31 | 94 | 1008.7 |